TimeCDT,TemperatureF,Dew PointF,Humidity,Sea Level PressureIn,VisibilityMPH,Wind Direction,Wind SpeedMPH,Gust SpeedMPH,PrecipitationIn,Events,Conditions,WindDirDegrees,DateUTC
12:53 AM,42.1,21.9,45,30.08,10.0,SE,19.6,29.9,N/A,,Overcast,130,2014-04-19 05:53:00
1:53 AM,42.1,23.0,47,30.05,10.0,SE,24.2,31.1,N/A,,Overcast,130,2014-04-19 06:53:00
2:53 AM,43.0,25.0,49,29.99,10.0,SE,26.5,40.3,0.00,,Scattered Clouds,140,2014-04-19 07:53:00
3:53 AM,42.8,30.2,61,29.92,9.0,SSE,27.6,38.0,N/A,Rain,Light Rain,150,2014-04-19 08:53:00
4:53 AM,42.1,32.0,67,29.94,9.0,SE,25.3,34.5,0.02,Rain,Light Rain,140,2014-04-19 09:53:00
5:53 AM,41.0,35.1,79,29.91,10.0,SSE,23.0,-,0.02,,Overcast,150,2014-04-19 10:53:00
6:53 AM,39.9,36.0,86,29.91,10.0,SSE,25.3,-,0.02,Rain,Light Rain,150,2014-04-19 11:53:00
7:53 AM,39.9,37.0,89,29.91,10.0,SSE,20.7,28.8,0.03,,Mostly Cloudy,160,2014-04-19 12:53:00
8:53 AM,44.1,37.9,79,29.92,10.0,South,16.1,27.6,0.00,,Overcast,170,2014-04-19 13:53:00
9:53 AM,48.0,39.9,74,29.90,10.0,South,20.7,28.8,N/A,,Scattered Clouds,170,2014-04-19 14:53:00
10:53 AM,50.0,39.9,68,29.91,10.0,South,23.0,29.9,N/A,,Mostly Cloudy,180,2014-04-19 15:53:00
11:53 AM,55.0,43.0,64,29.91,10.0,South,17.3,-,N/A,,Mostly Cloudy,180,2014-04-19 16:53:00
12:06 PM,57.0,44.1,62,29.88,10.0,SSW,18.4,25.3,N/A,,Mostly Cloudy,200,2014-04-19 17:06:00
12:35 PM,57.9,44.1,60,29.89,10.0,SW,20.7,27.6,N/A,,Scattered Clouds,220,2014-04-19 17:35:00
12:53 PM,60.1,44.1,55,29.91,10.0,SW,17.3,24.2,N/A,,Clear,220,2014-04-19 17:53:00
1:53 PM,64.9,37.0,36,29.90,10.0,WSW,17.3,24.2,N/A,,Clear,240,2014-04-19 18:53:00
2:53 PM,64.0,28.0,26,29.91,10.0,WSW,16.1,29.9,N/A,,Clear,250,2014-04-19 19:53:00
3:53 PM,66.0,30.9,27,29.92,10.0,West,19.6,28.8,N/A,,Clear,270,2014-04-19 20:53:00
4:53 PM,64.9,28.9,26,29.93,10.0,West,20.7,-,N/A,,Clear,260,2014-04-19 21:53:00
5:53 PM,64.0,27.0,25,29.94,10.0,West,20.7,-,N/A,,Clear,260,2014-04-19 22:53:00
6:53 PM,62.1,30.9,31,29.96,10.0,WSW,12.7,-,N/A,,Clear,250,2014-04-19 23:53:00
7:53 PM,55.0,33.1,43,29.97,10.0,WSW,6.9,-,N/A,,Clear,250,2014-04-20 00:53:00
8:53 PM,51.1,32.0,48,29.98,10.0,SSW,5.8,-,N/A,,Clear,210,2014-04-20 01:53:00
9:53 PM,48.9,30.9,50,29.99,10.0,South,6.9,-,N/A,,Clear,180,2014-04-20 02:53:00
10:53 PM,45.0,30.9,58,30.00,10.0,North,-9999.0,-,N/A,,Clear,0,2014-04-20 03:53:00
11:53 PM,39.9,32.0,73,30.02,10.0,NNW,6.9,-,N/A,,Clear,330,2014-04-20 04:53:00